Weather History for KSLI - January, 2013

Change the Weather History Date:

Tuesday, January 15, 2013

  Actual Average (KLGB) Record (KLGB)
Temperature  
Mean Temperature 46 °F 57 °F  
Max Temperature 61 °F 68 °F 89 °F (1976)
Min Temperature 31 °F 46 °F 31 °F (2007)
Degree Days  
Heating Degree Days 19 8  
Month to date heating degree days 128  
Since 1 July heating degree days 548  
Cooling Degree Days 0 0  
Month to date cooling degree days 0  
Year to date cooling degree days 0  
Moisture  
Dew Point 25 °F    
Average Humidity 50    
Maximum Humidity 79    
Minimum Humidity 18    
Precipitation  
Precipitation 0.00 in 0.09 in 1.45 in (1993)
Month to date precipitation 1.30  
Year to date precipitation 1.30  
Since 1 July precipitation 5.12  
Sea Level Pressure  
Sea Level Pressure 30.39 in    
Wind  
Wind Speed 4 mph (NW)    
Max Wind Speed 10 mph    
Max Gust Speed -    
Visibility 10 miles    
Events      
T = Trace of Precipitation, MM = Missing Value Source: NWS Daily Summary

Daily Weather History Graph

Daily Weather History Graph

Search for Another Location

Airport or City:

Trip Planner

Search our weather history database for the weather conditions in past years. The results will help you decide how hot, cold, wet, or windy it might be!

Date:

Astronomy

Jan. 15, 2013 Rise Set
Actual Time 6:56 AM PST 5:06 PM PST
Civil Twilight 6:29 AM PST 5:34 PM PST
Nautical Twilight 5:59 AM PST 6:04 PM PST
Astronomical Twilight 5:29 AM PST 6:34 PM PST
Moon 9:19 AM PST (1/15) 9:45 PM PST (1/15)
Length of Visible Light 11h 04m
Length of Day
10h 10m
Waxing Crescent, 20% of the Moon is Illuminated
Jan 15
Waxing Crescent
Jan 18
First Quarter
Jan 26
Full
Feb 3
Last Quarter
Feb 9
New

Hourly Weather History & Observations

Time (PST) Temp. Windchill Dew Point Humidity Pressure Visibility Wind Dir Wind Speed Gust Speed Precip Events Conditions
12:58 AM 35.6 °F - 24.1 °F 63% 30.36 in 10.0 mi NW 2.3 mph - N/A   Clear
1:58 AM 36.9 °F 34.3 °F 23.7 °F 59% 30.39 in 10.0 mi NNW 3.5 mph - N/A   Clear
2:58 AM 37.4 °F 34.9 °F 23.9 °F 58% 30.40 in 10.0 mi NW 3.5 mph - N/A   Clear
3:58 AM 34.2 °F - 24.1 °F 67% 30.39 in 10.0 mi North 2.3 mph - N/A   Clear
4:58 AM 31.8 °F - 23.7 °F 72% 30.39 in 10.0 mi ENE 2.3 mph - N/A   Clear
5:58 AM 32.5 °F - 23.9 °F 70% 30.40 in 10.0 mi Calm Calm - N/A   Clear
6:58 AM 33.3 °F 30.2 °F 21.9 °F 63% 30.41 in 10.0 mi East 3.5 mph - N/A   Partly Cloudy
7:58 AM 34.2 °F - 26.1 °F 72% 30.44 in 10.0 mi Calm Calm - N/A   Partly Cloudy
8:58 AM 46.2 °F - 18.1 °F 33% 30.46 in 10.0 mi NNW 2.3 mph - N/A   Partly Cloudy
9:58 AM 51.1 °F - 20.3 °F 30% 30.47 in 10.0 mi Variable 1.2 mph - N/A   Clear
10:58 AM 55.6 °F - 17.2 °F 22% 30.43 in 10.0 mi WNW 8.1 mph - N/A   Partly Cloudy
11:58 AM 58.3 °F - 17.1 °F 20% 30.39 in 10.0 mi West 9.2 mph - N/A   Scattered Clouds
12:58 PM 60.4 °F - 18.0 °F 19% 30.36 in 10.0 mi West 10.4 mph - N/A   Partly Cloudy
1:58 PM 61.2 °F - 17.6 °F 18% 30.34 in 10.0 mi WNW 9.2 mph - N/A   Partly Cloudy
2:58 PM 61.2 °F - 19.2 °F 20% 30.34 in 10.0 mi WNW 8.1 mph - N/A   Partly Cloudy
3:58 PM 58.3 °F - 19.4 °F 22% 30.34 in 10.0 mi West 10.4 mph - N/A   Partly Cloudy
4:58 PM 54.1 °F - 24.6 °F 32% 30.36 in 10.0 mi WNW 8.1 mph - N/A   Partly Cloudy
5:58 PM 50.7 °F - 27.7 °F 41% 30.37 in 10.0 mi West 4.6 mph - N/A   Partly Cloudy
6:58 PM 50.0 °F - 35.6 °F 58% 30.38 in 10.0 mi Calm Calm - N/A   Clear
7:58 PM 48.6 °F - 35.1 °F 60% 30.37 in 10.0 mi NNW 4.6 mph - N/A   Clear
8:58 PM 45.9 °F - 35.4 °F 67% 30.38 in 10.0 mi East 2.3 mph - N/A   Clear
9:58 PM 42.4 °F - 36.3 °F 79% 30.37 in 10.0 mi North 1.2 mph - N/A   Clear
10:58 PM 42.6 °F - 34.5 °F 73% 30.37 in 10.0 mi SE 2.3 mph - N/A   Clear
11:58 PM 40.6 °F - 33.1 °F 74% 30.37 in 10.0 mi Calm Calm - N/A   Clear